User: anonymous   Login
Location: Unspecified
(0.0000°N, 0.0000°E)
Time: 22:50:35
(UTC+02:00)
Language:

Cosmos 1833 Rocket - Orbit

View from above orbital plane
View from above orbital plane
View from above satellite
View from above satellite

Ground track
Ground track

The orbit data is extracted from the following two-line orbital elements,

1 17590U 87027B   17207.81143319 -.00000188 +00000-0 -69915-4 0  9996
2 17590 071.0027 066.5386 0007116 251.1665 108.8687 14.16743523569505
Epoch (UTC): 26 July 2017 19:28:27
Eccentricity: 0.0007116
inclination: 71.0027°
perigee height: 831 km
apogee height: 841 km
right ascension of ascending node: 66.5386°
argument of perigee: 251.1665°
revolutions per day: 14.16743523
mean anomaly at epoch: 108.8687°
orbit number at epoch: 56950

The dashed part of the orbit path shows where the satellite is in the earth's shadow,  

DLR